Regional Weather Roundup
Issued by NWS

Home | Current Version | Previous Version | Graphics & Text | Print | Product List | Glossary On
Versions: 1 2 3 4 5 6 7 8 9 10 11 12 13 14 15 16 17 18 19 20 21 22 23 24 25 26 27 28 29 30 31 32 33 34 35 36 37 38 39 40 41 42 43 44 45 46 47 48 49 50
000
ASUS43 KOAX 201610
RWRNE

WEATHER ROUNDUP FOR NEBRASKA
NATIONAL WEATHER SERVICE OMAHA NE
1100 AM CDT WED AUG 20 2014

NOTES: SATELLITE DATA IS BEING USED TO AUGMENT CLOUD COVER ABOVE
       12000 FEET.
       "FAIR" INDICATES FEW OR NO CLOUDS BELOW 12,000 FEET WITH NO
       SIGNIFICANT WEATHER AND/OR OBSTRUCTIONS TO VISIBILITY.

  * THESE STATIONS DO NOT REPORT WEATHER SUCH AS RAIN...SNOW OR FOG.

NEZ001>004-019>022-054>056-201700-
NEBRASKA PANHANDLE

CITY           SKY/WX    TMP DP  RH WIND       PRES   REMARKS
SCOTTSBLUFF    MOSUNNY   80  56  43 W12       29.85S
ALLIANCE       CLOUDY    79  54  41 W8        29.84R
CHADRON        PTSUNNY   82  55  39 W10       29.77R
KIMBALL        MOSUNNY   79  53  39 W13       29.90R
SIDNEY         MOSUNNY   77  55  46 NW3       29.89R
$$

NEZ057>060-069>072-079>082-201700-
SOUTHWEST NEBRASKA

CITY           SKY/WX    TMP DP  RH WIND       PRES   REMARKS
NORTH PLATTE   CLOUDY    75  66  73 NW7       29.78S
IMPERIAL       CLOUDY    71  63  75 W6        29.82R
LEXINGTON      PTSUNNY   78  70  75 CALM      29.78R
MCCOOK         MOSUNNY   86  64  47 S8        29.78R
OGALLALA       CLOUDY    71  65  81 CALM      29.82S
$$

NEZ005>010-023>029-035>040-094-201700-
NORTH CENTRAL NEBRASKA

CITY           SKY/WX    TMP DP  RH WIND       PRES   REMARKS
VALENTINE      CLOUDY    77  65  66 S7        29.77R
AINSWORTH      CLOUDY    77  67  70 S7        29.78R
BROKEN BOW     PTSUNNY   76  68  76 SE7       29.78R
O`NEILL        SUNNY     79  71  75 SE10      29.77F
ORD            CLOUDY    75  67  76 SE12      29.77S
THEDFORD       CLOUDY    76  67  72 CALM      29.79F
$$

NEZ041-046>049-061>064-073>077-083>087-201700-
SOUTH CENTRAL NEBRASKA

CITY           SKY/WX    TMP DP  RH WIND       PRES   REMARKS
GRAND ISLAND   CLOUDY    77  66  68 E6        29.81R
AURORA         CLOUDY    76  70  80 SE5       29.82R
HASTINGS       CLOUDY    76  64  66 S8        29.80R
HEBRON         MOSUNNY   81  66  61 S10       29.81F
HOLDREGE       PTSUNNY   83  66  55 S12       29.79R
KEARNEY *      PTSUNNY   79  70  73 S9        29.79R
YORK           CLOUDY    75 N/A N/A SE7       29.82S
$$

NEZ011>018-030>034-042>045-201700-
NORTHEAST NEBRASKA

CITY           SKY/WX    TMP DP  RH WIND       PRES   REMARKS
NORFOLK        CLOUDY    72  68  87 SE12      29.82S
ALBION         CLOUDY    76  68  76 SE14G20   29.79F
BLAIR          CLOUDY    74  67  81 SE12G17   29.85S
COLUMBUS *     CLOUDY    72  70  94 SE9       29.83S
FREMONT        CLOUDY    75  67  77 SE13      29.84S
TEKAMAH        CLOUDY    75  68  78 SE16      29.83S
WAYNE          PTSUNNY   72  69  90 CALM      29.85R
$$

NEZ050>053-065>068-078-088>093-201700-
SOUTHEAST NEBRASKA

CITY           SKY/WX    TMP DP  RH WIND       PRES   REMARKS
LINCOLN        CLOUDY    85  67  54 SE6       29.83F
OMAHA EPPLEY   CLOUDY    75  67  76 SE15      29.85S
BEATRICE       PTSUNNY   83  70  64 S8        29.84R
FALLS CITY     MOSUNNY   88  72  58 VRB5      29.85R HX  94
NEBRASKA CITY  PTSUNNY   82  70  67 E5        29.87S
PLATTSMOUTH    PTSUNNY   80  69  69 E13       29.86F
$$

NEZ044-045-051>053-067-201700-
OMAHA AREA

CITY           SKY/WX    TMP DP  RH WIND       PRES   REMARKS
OMAHA EPPLEY   CLOUDY    75  67  76 SE15      29.85S
BLAIR          CLOUDY    74  67  81 SE12G17   29.85S
FREMONT        CLOUDY    75  67  77 SE13      29.84S
MILLARD        CLOUDY    76  70  81 SE6       29.85S
OFFUTT AFB     CLOUDY    77  74  91 E10       29.85S
PLATTSMOUTH    PTSUNNY   80  69  69 E13       29.86F
WAHOO          FAIR      74  69  82 SE13      29.84R
$$


USA.gov is the U.S. government's official web portal to all federal, state and local government web resources and services.